GFSGL_sfc_dewp_273.txt.gz
Dewpoint
28 29 31 34 36 36 34 33 32 33 34 34 35 38 39 40 42 43 47 51 50 49 49 48 46 46 45 45 43 43 44 43 41 30 32 32 31 31 30 30 32 30 32
28 29 31 32 34 36 35 35 36 36 35 33 35 38 37 39 41 43 47 48 47 44 40 42 38 40 38 38 41 38 35 35 32 28 29 29 29 30 28 27 28 28 27
28 29 29 30 31 32 32 33 34 35 35 35 36 36 36 37 38 42 41 41 41 39 38 38 37 38 36 36 35 35 35 34 33 30 27 29 29 26 26 25 24 23 23
27 28 28 29 30 31 32 32 32 33 33 33 34 35 35 36 37 36 36 35 34 34 34 35 36 36 35 35 35 35 34 33 32 29 26 24 24 26 24 20 19 21 21
26 27 27 28 29 29 30 31 32 32 32 33 33 33 33 34 35 36 36 35 34 33 33 33 34 34 35 35 34 33 32 31 28 25 22 22 21 20 21 21 19 19 17
25 25 27 27 28 28 29 29 30 31 32 32 32 33 33 34 38 37 35 34 33 33 32 32 33 33 35 35 35 34 32 29 26 24 22 20 20 22 20 20 18 14 9
23 24 25 26 26 27 27 27 29 30 31 31 31 32 32 32 36 35 34 32 31 31 31 30 31 32 32 32 34 34 32 32 29 25 22 22 21 21 20 16 12 11 9
22 23 24 25 25 26 26 27 27 29 29 30 30 31 31 32 34 32 30 29 28 28 28 28 27 27 26 24 22 22 21 22 26 27 24 19 19 17 15 14 13 10 6
23 23 24 25 25 25 25 26 27 27 28 28 29 30 30 31 33 31 28 27 26 26 26 27 27 27 30 27 18 15 16 17 23 23 22 22 21 20 15 9 -1 -0 -4
23 24 25 26 25 25 25 25 27 27 27 28 28 29 29 30 32 31 28 25 24 24 25 25 26 24 25 22 16 15 16 16 17 18 18 19 18 17 13 9 4 -4 -6
25 24 25 26 26 26 25 26 26 26 26 26 26 27 28 29 30 30 28 23 22 20 19 19 21 23 22 20 19 17 17 18 17 11 10 10 10 9 7 7 6 1 -7
23 24 24 25 26 26 25 25 25 25 24 24 24 24 25 26 27 27 26 24 23 19 18 18 19 22 21 20 19 22 22 14 9 6 5 3 4 5 5 5 5 3 4
19 19 22 23 23 24 23 21 20 21 20 20 21 21 21 21 23 25 25 25 23 20 20 20 21 20 19 21 22 21 11 6 2 -0 0 1 2 3 1 -5 -4 -2 -2
14 16 18 20 21 21 21 20 20 18 18 19 20 19 18 18 18 19 20 22 24 22 22 17 18 20 21 20 17 11 5 3 -0 -2 -5 -4 -4 -6 -6 -4 -5 -5 -9
12 15 16 17 18 20 20 20 20 18 17 14 10 12 13 13 18 21 18 18 16 19 11 7 6 4 6 6 1 -1 -2 -2 -4 -7 -7 -7 -6 -6 -5 -6 -5 -10 -10
13 13 12 12 12 14 16 19 26 25 25 24 23 18 17 23 23 22 23 25 25 21 4 -0 -0 0 2 -1 -2 -5 -7 -7 -7 -9 -11 -8 -6 -5 -5 -8 -9 -11 -10
9 10 9 11 10 10 10 11 20 23 26 25 24 24 25 24 24 22 22 23 23 16 -2 -5 -2 1 -2 -3 -4 -6 -5 -5 -10 -7 -7 -8 -10 -11 -9 -9 -9 -9 -9
4 9 9 9 9 7 7 7 9 10 11 7 18 22 23 24 24 23 22 20 12 6 -6 -4 -3 -3 -4 -3 -5 -7 -9 -11 -10 -7 -8 -9 -9 -10 -14 -10 -6 -9 -11
6 8 7 6 5 7 7 6 4 3 2 1 13 14 10 24 23 23 23 6 3 -2 -6 -7 -7 -6 -4 -5 -3 -5 -6 -6 -8 -10 -9 -7 -8 -10 -10 -6 -2 -2 -5
6 9 7 6 3 3 5 5 3 2 1 -0 9 8 -1 5 6 5 4 2 0 3 2 3 1 -1 -3 -4 -5 -5 -8 -10 -8 -7 -5 -2 -1 -3 -2 -2 -1 -1 -1
11 8 9 4 5 7 5 8 6 1 1 -1 4 4 16 5 7 3 3 1 4 6 7 6 4 3 2 1 -0 -2 -2 1 -2 -1 -0 1 2 -1 1 1 1 1 0
9 9 7 10 8 4 4 2 1 11 16 16 18 17 22 22 18 15 11 9 9 9 10 9 8 6 6 6 4 5 4 4 5 5 5 6 5 4 3 2 2 1 0
6 6 3 0 2 2 1 2 8 18 19 20 21 20 20 20 20 20 19 18 7 7 9 10 10 6 5 7 6 8 8 8 9 9 7 6 5 4 3 2 2 1 1
6 6 7 4 1 2 4 15 19 21 22 22 22 21 21 21 20 18 10 9 8 4 1 6 7 7 3 6 8 10 11 12 11 10 9 7 5 5 4 3 3 2 2
10 9 9 9 9 11 18 20 21 22 22 22 22 21 21 18 13 1 -2 -5 -5 -4 -0 -2 1 4 6 9 11 10 11 13 11 9 8 7 5 4 3 3 2 2 1
14 14 14 14 16 19 21 22 22 23 22 22 21 18 14 11 0 -5 -6 -6 -4 -3 -1 0 6 9 8 10 10 11 10 12 10 9 7 5 4 3 3 2 1 -1 -2

GFSGL_sfc_dewp_276.txt.gz
Dewpoint
27 28 29 29 30 31 32 34 36 35 34 33 33 33 33 34 38 38 40 41 43 47 50 51 50 49 48 47 47 45 47 46 43 33 34 33 32 32 32 33 34 33 35
26 27 28 29 29 30 31 32 34 34 34 34 34 34 35 36 36 39 39 40 42 44 45 43 42 45 43 43 43 43 45 40 36 33 32 32 33 32 32 31 31 32 32
25 26 27 28 28 28 30 31 32 32 34 35 36 35 34 33 34 36 37 38 41 43 42 44 40 42 39 38 37 35 34 34 33 31 27 31 30 28 28 28 27 26 28
25 25 25 26 28 28 30 30 31 32 32 33 35 35 35 35 35 35 35 37 38 38 38 38 38 40 38 36 36 35 35 34 33 32 29 28 26 28 27 23 21 23 23
24 24 23 25 27 28 28 30 31 32 32 32 33 33 34 35 35 35 36 36 35 34 35 35 36 36 37 37 36 35 34 33 31 28 26 25 23 23 23 24 20 20 20
22 22 22 24 25 27 28 29 29 30 32 32 32 32 33 33 38 39 36 35 34 34 33 34 34 34 37 37 37 37 35 31 29 27 25 23 22 24 23 22 19 18 17
22 22 23 23 24 25 26 27 28 28 29 30 31 32 32 34 37 37 35 34 33 33 33 32 32 33 33 33 35 35 34 34 31 29 24 23 22 22 23 20 21 18 13
23 22 23 24 24 25 24 25 26 28 28 28 29 30 32 33 34 33 32 31 30 30 31 31 31 30 30 28 27 26 26 28 28 27 26 25 24 25 23 21 17 11 10
24 23 23 25 23 23 23 24 26 27 27 28 29 29 29 30 34 33 30 28 27 27 28 28 28 28 31 30 24 24 24 26 29 28 28 27 27 25 18 13 11 6 1
23 25 24 24 24 24 24 25 27 27 27 27 28 28 29 30 33 32 29 27 26 26 28 29 30 29 30 28 23 22 21 21 22 23 23 24 22 21 19 15 8 2 -2
18 21 25 24 24 24 25 26 26 26 26 26 25 26 28 29 31 31 30 26 25 24 24 25 27 29 27 24 21 19 19 19 19 15 14 11 8 8 8 7 7 1 -7
19 21 20 21 23 23 22 22 23 25 25 25 24 24 24 27 30 31 30 28 26 22 21 21 21 23 23 23 22 23 21 15 12 11 9 6 4 4 4 3 3 2 4
15 14 17 21 22 22 21 20 20 21 21 21 21 21 20 22 24 28 24 23 22 20 20 21 23 24 25 23 22 19 12 8 7 5 4 2 3 3 0 -3 -3 -1 0
10 14 17 18 20 21 21 20 20 19 19 19 19 18 18 18 19 20 22 22 23 21 20 19 22 23 22 15 9 8 5 3 2 1 -2 -2 -2 -4 -4 -2 -3 -4 -6
11 13 15 15 16 18 21 21 21 19 20 18 15 14 14 16 20 22 20 18 17 17 10 8 8 6 7 4 1 -1 -2 -1 -3 -6 -6 -6 -5 -4 -4 -5 -6 -10 -11
12 12 11 11 10 13 14 17 26 25 25 25 24 21 19 24 24 24 25 24 23 19 5 0 1 3 5 0 -1 -5 -7 -7 -7 -7 -10 -8 -6 -5 -6 -9 -9 -12 -11
8 9 8 11 10 10 10 11 15 21 26 26 25 26 25 24 24 23 24 24 23 16 0 -4 -3 -2 -4 -4 -4 -6 -5 -8 -11 -8 -8 -8 -9 -10 -9 -10 -9 -9 -12
7 10 11 11 9 6 6 6 14 8 6 7 18 23 25 23 23 22 22 20 17 6 -6 -7 -5 -7 -7 -6 -8 -9 -11 -13 -10 -9 -10 -11 -10 -12 -14 -12 -9 -11 -13
8 9 8 7 6 7 6 6 4 3 2 -1 12 13 9 24 23 22 23 6 2 -2 -6 -7 -7 -5 -5 -5 -5 -7 -8 -8 -10 -12 -11 -10 -10 -12 -12 -9 -7 -6 -9
5 8 7 4 3 3 4 4 2 1 -1 -2 7 10 -1 5 7 4 -0 -2 -2 -1 -2 0 -2 -5 -5 -4 -5 -6 -8 -11 -9 -9 -8 -7 -6 -7 -6 -5 -3 -5 -4
9 6 7 2 4 5 3 4 2 -1 2 0 2 4 17 14 7 6 5 1 -1 -1 2 3 1 1 0 -1 -3 -5 -6 -5 -6 -3 -2 -2 -1 -2 0 2 1 1 0
9 8 5 8 5 4 2 2 3 1 7 16 18 18 23 23 19 18 17 16 15 12 9 8 7 8 7 5 4 3 3 2 2 3 3 4 4 4 4 4 4 3 2
7 4 1 -2 2 1 1 1 2 8 12 18 20 21 21 21 21 21 20 19 17 14 6 7 7 4 4 7 7 7 6 4 6 7 7 6 6 5 5 3 3 2 1
8 11 11 11 8 6 8 7 12 17 19 20 22 22 22 22 21 20 18 7 -1 -5 -6 -3 -0 2 -0 -1 -0 3 5 8 8 9 10 7 5 5 4 4 3 2 2
9 13 13 13 12 11 12 13 17 19 21 22 22 22 22 21 13 12 6 -4 -7 -8 -5 -7 -8 -5 -1 2 6 7 8 13 9 9 8 6 4 4 4 3 2 2 1
12 15 15 15 15 15 16 18 21 22 22 23 22 19 14 10 8 6 2 -4 -4 -5 -6 -4 -1 4 5 4 5 8 10 12 10 9 6 5 3 3 3 2 1 -1 -3

GFSGL_sfc_dewp_279.txt.gz
Dewpoint
25 26 26 26 27 29 28 29 30 31 32 34 35 35 35 35 34 34 34 37 38 40 41 44 46 49 50 50 49 47 48 49 44 33 33 33 34 35 35 36 41 41 42
25 26 26 26 26 26 27 28 29 31 32 33 35 34 34 35 34 34 35 36 37 38 39 42 46 49 49 48 48 46 46 47 36 33 32 32 33 33 33 33 32 35 38
24 25 25 25 26 27 27 28 30 31 32 32 33 33 33 35 35 36 36 37 38 39 40 40 44 47 44 46 46 43 41 35 36 34 32 33 32 32 31 30 30 31 32
24 24 23 24 25 26 28 29 29 31 32 32 32 33 34 34 34 34 35 35 35 36 37 40 40 43 43 42 40 38 36 35 34 33 31 29 29 30 29 25 25 29 27
23 22 21 23 24 26 27 28 29 30 31 32 32 32 33 34 35 34 34 34 35 35 37 38 39 39 39 41 39 36 36 35 33 31 28 27 26 26 24 27 23 22 21
21 21 22 23 23 24 26 26 28 29 30 31 32 32 32 33 36 37 36 35 35 36 34 34 34 35 38 39 39 39 38 34 32 30 28 26 26 26 27 25 21 20 19
21 21 22 23 23 24 25 26 27 28 29 30 30 31 32 34 38 38 37 34 34 34 34 34 34 34 36 36 37 37 36 36 34 30 28 27 26 26 25 23 24 23 18
19 20 24 24 24 24 24 25 26 28 28 28 29 30 30 33 34 34 33 31 31 31 32 32 32 32 32 31 30 28 28 29 29 29 29 26 26 27 26 25 23 15 16
19 22 25 25 25 24 24 25 26 27 27 28 29 29 30 31 33 32 30 29 28 28 30 31 31 31 33 32 27 26 26 28 32 32 31 30 31 30 24 21 18 18 10
18 22 24 26 25 24 25 25 28 28 28 27 27 29 30 30 33 32 30 28 26 27 29 30 31 31 32 31 27 25 24 25 26 27 27 29 27 27 26 23 19 14 8
16 18 18 20 21 21 23 25 26 28 27 27 26 26 29 30 31 32 30 27 26 25 25 26 29 31 31 30 28 24 22 22 22 18 16 15 13 12 11 12 12 9 8
17 17 17 19 21 22 21 22 23 24 23 23 23 24 24 29 31 31 31 30 28 24 24 26 28 30 30 29 26 26 23 19 17 15 13 10 8 5 4 5 7 7 7
14 12 15 18 21 21 21 21 21 21 21 20 20 20 21 23 25 29 28 28 28 25 26 27 27 26 25 24 23 21 16 15 14 11 8 4 4 2 3 3 5 6 5
11 13 17 18 20 21 21 21 21 20 19 18 18 18 19 20 20 21 21 20 22 22 23 21 20 19 17 11 9 9 9 10 9 6 4 3 2 3 2 3 2 2 3
11 14 15 16 16 18 20 21 22 21 22 18 17 18 19 21 23 22 20 19 18 18 14 14 11 9 6 4 3 3 5 5 4 2 3 2 2 3 2 1 1 1 2
13 14 14 14 14 15 17 20 26 26 26 26 26 24 24 25 25 25 24 23 21 16 11 11 9 8 5 3 3 1 -0 0 0 2 2 2 3 3 2 1 1 2 1
12 12 12 13 13 13 13 15 14 18 25 26 26 25 25 24 24 25 24 23 22 14 8 8 9 9 5 4 3 3 2 -1 -3 2 2 2 2 2 1 2 2 1 0
10 9 12 12 12 10 11 11 13 11 11 13 17 23 25 24 24 24 24 20 15 12 8 9 8 6 7 8 7 7 3 -1 0 -0 -0 0 1 1 -0 1 1 0 0
10 10 9 9 8 10 9 9 8 8 8 8 12 16 11 24 24 23 23 14 13 12 9 9 8 7 7 6 5 4 4 3 3 2 0 -2 -2 -2 -2 -1 -1 -3 -4
10 10 9 10 8 7 8 8 7 7 6 6 13 14 10 12 15 16 10 10 12 12 10 11 9 7 7 6 6 4 2 0 -0 -1 -0 -0 -1 -2 -2 -3 -2 -1 -1
12 9 7 5 6 6 7 8 9 8 9 8 10 10 17 15 15 15 14 11 11 10 9 9 8 7 6 5 3 2 2 4 1 0 -1 -1 -2 -2 -1 1 1 1 2
12 10 8 9 7 7 8 11 8 7 7 8 14 19 23 22 21 20 20 20 19 17 15 13 12 9 9 8 7 6 5 5 4 3 3 3 3 4 4 4 5 5 4
10 8 6 4 8 5 5 4 7 9 10 14 16 20 21 23 23 22 22 22 20 18 15 11 11 10 9 9 10 10 9 8 8 8 7 7 7 7 7 5 5 5 4
11 10 9 8 7 9 10 12 11 11 14 17 19 19 22 23 22 20 19 16 9 5 3 4 4 6 5 6 8 8 9 9 10 11 11 9 8 8 7 6 5 4 3
11 10 11 12 13 12 13 14 15 16 18 19 20 22 22 21 17 12 8 6 5 5 1 -1 1 2 4 4 6 7 9 12 12 11 11 9 7 6 5 4 3 3 2
10 11 10 17 16 15 15 16 16 18 19 21 21 16 13 11 8 7 5 4 4 3 5 7 7 7 7 8 9 10 11 12 11 10 9 8 6 5 4 2 0 0 -1

GFSGL_sfc_dewp_282.txt.gz
Dewpoint
27 27 27 27 27 27 27 27 28 29 30 29 31 32 33 35 36 35 35 34 34 34 35 37 40 43 46 46 47 49 50 49 43 34 35 33 34 35 38 35 40 44 48
26 27 27 27 26 27 28 28 29 31 31 31 31 32 33 33 35 35 33 34 35 34 37 37 36 37 43 46 47 48 50 49 39 33 32 33 33 33 33 33 33 34 40
26 27 26 27 28 27 28 29 30 31 31 32 32 32 33 33 33 35 35 36 36 37 37 36 38 40 43 42 47 48 49 40 40 35 32 33 32 33 32 32 32 33 35
27 27 26 26 27 28 28 29 28 30 31 31 32 33 33 33 33 34 34 35 35 35 36 38 38 40 40 44 46 44 41 40 35 36 33 33 33 32 33 31 30 32 31
26 26 26 27 28 27 28 28 29 31 32 31 31 32 33 32 33 34 34 35 35 36 36 37 37 37 38 42 42 40 39 39 37 36 30 29 28 28 28 31 27 23 23
25 25 26 26 27 27 27 28 29 30 31 31 31 31 32 33 35 36 35 34 34 34 35 36 36 36 38 40 42 41 42 38 35 33 30 29 28 29 28 25 23 24 22
25 26 26 27 26 27 27 28 28 29 30 30 30 31 31 33 37 36 37 34 34 35 35 35 33 34 35 36 38 38 37 39 37 34 31 30 28 28 27 26 27 27 21
25 26 27 27 26 27 26 27 29 30 30 30 30 32 31 32 34 35 33 32 31 32 33 33 32 32 34 33 31 30 30 31 32 32 31 30 30 29 27 27 25 19 20
25 25 25 25 25 26 27 28 30 30 30 30 30 31 30 31 33 33 31 30 30 30 31 32 32 31 33 32 29 28 28 30 33 32 32 32 32 31 25 22 21 21 17
24 23 23 24 23 23 26 29 30 31 31 30 29 31 31 31 33 32 31 29 28 28 30 31 32 32 34 31 28 27 26 27 28 29 30 31 29 29 29 27 26 25 17
22 22 22 23 24 25 26 27 27 29 29 28 28 28 29 31 32 33 32 30 28 28 28 29 31 32 32 31 29 26 24 25 24 21 21 21 20 21 21 21 22 22 19
21 21 22 23 25 26 25 25 24 24 22 24 25 26 27 27 31 32 32 31 30 27 28 29 31 31 31 30 28 28 27 23 22 21 20 17 14 13 11 11 12 12 14
20 20 22 23 24 24 24 23 23 22 20 18 19 20 21 23 23 25 28 29 29 27 28 28 28 28 28 27 26 24 22 21 21 19 16 12 9 7 9 10 10 9 9
21 20 21 22 24 25 23 23 25 23 22 21 20 21 22 21 19 19 21 21 22 20 19 19 19 19 17 14 14 13 14 18 17 13 10 6 6 9 8 8 8 9 10
21 20 21 22 24 25 25 26 25 26 23 24 24 24 24 23 23 22 21 21 19 16 17 18 15 13 12 10 10 11 12 12 10 9 8 8 8 8 6 7 7 8 10
21 19 20 21 22 23 25 25 26 26 26 26 25 25 27 25 24 24 24 20 18 15 18 15 12 11 9 9 8 7 8 9 8 10 10 9 8 8 7 7 8 9 9
25 23 20 19 21 22 21 21 22 23 24 25 27 26 25 24 25 24 23 22 18 16 18 17 14 12 10 10 10 9 6 6 8 10 10 10 10 10 9 8 8 7 8
23 19 21 20 21 21 21 20 19 20 22 22 21 24 24 23 23 24 24 22 21 19 18 17 16 15 14 13 12 10 8 5 7 8 8 9 9 9 8 9 8 8 8
22 21 19 20 20 20 20 19 19 17 18 19 20 21 19 23 24 24 22 24 22 21 19 19 18 17 16 16 15 14 12 11 11 9 9 8 8 9 8 8 8 5 5
21 19 18 19 18 19 18 19 18 19 19 19 21 22 22 20 24 24 23 23 23 23 21 21 20 19 19 17 17 15 13 11 11 11 11 10 9 8 7 6 6 6 4
22 19 17 18 19 20 19 19 19 20 20 20 22 22 23 25 24 24 24 23 22 22 21 21 21 20 19 18 17 17 15 16 13 12 12 10 8 7 6 7 7 5 6
23 20 18 19 19 18 19 19 19 19 20 20 21 22 23 24 25 25 25 25 25 23 22 22 21 21 20 18 17 16 15 15 15 12 12 10 9 9 8 8 8 9 9
22 20 18 19 19 17 17 18 18 18 19 20 21 22 23 25 26 26 26 25 25 23 21 19 19 17 17 15 16 16 16 16 15 15 13 12 11 12 11 10 9 8 8
20 19 17 17 16 16 17 17 17 17 18 20 21 21 22 24 25 26 26 24 20 17 14 13 13 13 13 13 15 15 14 14 14 13 13 13 12 11 11 10 9 8 8
18 18 17 16 16 15 17 17 18 18 19 19 21 22 23 25 25 21 17 15 13 13 11 9 10 10 10 10 10 11 11 12 13 13 13 12 11 10 10 9 8 7 6
16 16 17 17 17 17 17 17 18 19 19 21 22 22 20 16 15 13 12 11 10 10 10 11 11 9 10 11 11 11 11 12 12 12 13 12 10 9 8 7 6 6 4

GFSGL_sfc_dewp_285.txt.gz
Dewpoint
30 29 29 29 28 28 28 28 28 28 28 29 29 30 31 31 32 33 34 35 35 36 36 34 35 37 38 40 45 46 45 46 44 35 35 33 34 34 35 35 38 39 44
29 29 29 29 28 28 29 28 28 29 30 30 31 31 30 31 32 32 33 35 35 35 35 34 34 35 37 39 38 43 44 44 42 35 33 33 33 33 33 34 33 33 38
28 29 29 29 30 29 29 28 28 28 29 29 29 30 32 33 33 33 33 34 35 35 35 34 35 37 37 37 38 40 44 44 42 37 33 33 32 33 33 34 36 34 34
29 29 29 29 29 29 29 28 28 28 29 29 31 32 32 33 33 33 33 33 34 35 36 35 36 37 37 38 39 40 39 43 38 38 34 33 33 33 33 33 32 31 32
28 28 28 29 30 29 29 28 28 29 30 31 31 31 32 32 33 33 33 33 33 34 34 34 35 36 36 39 40 39 40 42 40 37 33 31 30 30 32 33 26 27 26
27 27 28 28 29 28 28 28 29 28 30 30 30 31 31 32 35 37 35 33 33 34 34 34 35 34 36 38 39 40 40 41 40 39 34 34 30 31 31 28 26 28 23
26 27 28 28 27 28 29 29 30 29 30 29 29 31 31 31 34 37 36 34 33 33 34 33 33 35 35 36 38 39 38 41 41 39 35 33 30 30 28 27 29 28 22
26 28 27 23 24 26 27 30 30 31 30 29 29 30 31 32 34 33 33 32 32 32 33 34 34 33 35 34 32 31 31 32 33 33 33 31 31 30 29 29 25 21 22
26 27 25 22 22 24 25 29 31 30 30 30 30 29 30 31 34 33 32 31 30 30 31 32 32 32 34 33 31 30 30 31 34 35 35 34 33 32 27 24 23 22 20
27 25 23 23 23 23 27 28 30 30 30 29 29 28 27 30 33 33 32 30 29 30 31 32 33 33 33 32 29 29 27 28 29 28 28 29 29 30 31 28 26 23 19
25 23 23 24 25 27 28 29 27 27 26 26 27 27 27 27 31 33 33 30 30 29 29 29 31 33 32 32 29 26 25 26 26 23 22 21 21 20 19 20 23 25 25
25 23 23 25 27 28 27 27 26 25 24 23 24 23 23 25 26 29 30 30 30 27 28 29 30 31 31 30 28 29 27 25 22 20 19 18 16 15 15 14 15 15 16
23 21 22 25 27 27 27 26 26 25 23 22 22 23 22 22 22 23 24 24 25 23 24 26 27 26 26 26 28 26 24 23 22 17 14 11 12 12 12 11 11 10 9
21 21 23 24 26 27 26 26 27 26 25 24 24 24 24 23 22 22 22 20 19 18 18 17 19 20 20 18 17 16 15 17 16 13 11 11 13 13 12 14 13 11 7
22 22 23 25 26 26 27 27 27 26 25 26 26 26 25 24 24 23 21 21 19 18 20 19 16 14 13 12 13 14 14 14 13 12 12 11 11 10 10 12 11 13 11
24 22 22 23 24 25 26 25 25 25 25 25 25 26 28 25 25 24 22 20 19 18 19 17 14 13 12 12 12 11 12 12 12 12 12 12 11 9 9 10 12 13 9
27 24 23 22 24 24 24 24 24 23 23 24 25 24 24 25 24 24 22 21 20 19 19 18 16 15 14 13 14 13 11 9 11 13 13 12 12 10 11 9 9 9 9
26 24 23 22 24 24 24 23 24 24 24 24 23 24 25 24 23 23 23 24 23 21 19 18 16 16 15 14 14 12 9 9 10 11 10 9 9 8 8 8 8 6 7
25 26 24 24 24 24 24 23 22 22 22 24 22 21 21 24 25 24 24 24 22 21 20 19 18 17 16 15 14 13 11 11 11 10 10 8 8 9 7 8 7 4 4
25 25 23 23 23 22 22 22 21 22 22 22 22 24 23 19 24 25 23 22 22 22 21 21 19 18 18 16 16 14 13 10 9 9 9 8 8 7 6 4 5 2 -0
26 25 22 23 22 22 22 22 22 22 22 23 23 25 24 25 25 24 24 23 23 23 23 23 22 21 20 20 20 18 13 13 11 9 9 8 7 5 5 6 4 1 2
27 25 21 21 22 22 22 22 22 22 22 22 23 24 25 24 26 26 26 25 25 24 24 23 22 21 21 19 18 18 18 16 17 13 12 10 8 7 7 7 7 8 7
28 26 22 21 21 20 21 22 22 22 22 22 23 23 23 24 25 25 25 27 26 25 23 21 20 18 19 15 18 17 16 15 15 15 13 11 10 11 10 9 9 9 9
27 26 23 22 21 20 20 20 21 19 21 22 22 22 23 24 25 25 27 27 22 17 13 12 11 10 11 13 16 15 14 13 14 12 12 12 12 12 12 10 8 7 7
25 24 23 21 20 19 20 20 20 20 20 20 20 21 23 23 25 22 18 17 15 15 12 11 10 9 8 7 7 8 11 12 13 14 14 13 12 11 11 9 7 5 2
21 21 21 21 20 20 20 20 20 21 20 21 22 21 19 17 16 14 14 13 12 12 12 11 10 9 8 10 10 11 11 13 12 12 12 12 10 9 7 4 1 -1 -3

GFSGL_sfc_dewp_288.txt.gz
Dewpoint
31 30 30 30 30 29 29 29 28 28 28 29 29 30 30 30 31 31 32 32 33 34 34 35 34 35 35 36 38 38 39 40 40 39 35 33 34 34 35 36 38 39 41
30 30 30 30 30 29 28 29 29 28 29 29 30 30 30 31 32 32 32 32 33 33 33 34 34 32 33 33 34 37 38 41 42 39 33 33 34 33 33 34 33 33 35
29 29 29 29 28 25 25 29 29 29 29 29 30 30 30 30 32 32 33 33 33 33 34 35 34 33 32 34 34 36 38 37 40 38 35 33 32 33 33 34 33 33 33
28 28 27 26 27 26 26 28 29 29 29 29 29 29 30 30 31 32 33 32 32 33 34 34 33 34 34 34 35 36 37 38 38 36 34 33 32 33 33 33 32 31 32
24 22 21 23 23 24 22 27 29 30 30 29 29 30 30 31 32 33 34 34 32 32 33 33 34 34 35 35 36 37 37 36 36 38 33 31 30 30 32 34 29 29 29
18 17 19 18 21 21 21 27 30 30 30 29 28 29 31 31 33 34 36 32 32 32 32 33 34 33 34 36 37 38 38 35 35 36 35 33 31 31 32 31 30 31 27
15 17 16 15 16 17 20 29 30 29 30 29 28 28 30 32 33 33 32 33 32 33 33 33 33 33 33 34 36 37 37 38 39 37 37 35 32 32 31 29 31 26 24
14 16 16 12 12 15 15 23 29 29 29 29 28 27 28 32 32 32 31 29 30 31 31 32 32 33 33 33 34 32 32 32 34 36 38 33 32 32 32 31 25 23 23
15 17 15 11 11 12 14 15 18 27 26 27 28 27 27 28 32 31 30 29 29 30 31 32 32 32 34 36 32 31 31 31 35 35 35 35 35 33 29 27 26 25 22
17 19 13 11 11 13 15 16 16 18 22 25 25 21 25 26 31 31 29 28 27 28 30 31 33 33 34 34 31 30 27 27 29 29 29 30 30 31 31 29 28 25 20
18 16 13 12 14 15 20 19 19 18 20 18 21 20 19 21 24 29 30 26 26 27 28 28 30 32 32 31 30 27 26 26 25 23 22 21 20 21 21 23 25 26 23
21 19 16 15 20 21 21 23 22 22 21 19 19 20 21 21 23 24 26 27 26 23 23 25 28 31 30 30 28 29 27 24 22 19 17 15 14 13 13 14 16 16 17
21 18 15 18 22 23 22 23 23 23 21 21 21 20 21 22 21 23 21 22 22 20 23 25 25 25 24 24 26 25 23 21 18 15 13 12 12 13 13 12 11 9 8
20 17 17 19 21 22 25 25 22 19 19 21 20 19 19 20 21 21 20 18 19 18 19 16 18 20 21 18 17 17 15 15 14 13 11 13 14 13 12 12 10 8 5
21 19 19 20 19 22 23 21 23 22 21 16 15 17 13 13 21 23 20 18 14 17 8 8 10 9 9 10 11 11 13 14 12 12 12 11 10 10 10 11 11 11 6
21 19 18 20 19 20 21 19 25 25 25 25 25 22 21 24 25 24 23 22 20 18 8 3 7 6 7 4 4 5 7 8 8 9 9 9 8 7 7 8 10 8 5
24 22 19 19 20 20 20 20 18 19 25 25 24 26 24 24 24 24 25 23 21 18 4 3 2 3 2 1 1 -1 -3 -2 -1 4 4 4 4 2 2 4 7 7 5
24 22 21 20 21 20 20 20 17 17 14 15 23 24 25 25 23 23 24 23 11 12 4 2 1 1 1 1 -1 -3 -4 -2 -1 1 1 -1 -3 -0 -2 -2 -1 -2 -0
24 25 23 20 21 21 21 18 17 15 14 13 11 18 19 24 25 24 24 11 9 9 7 6 3 3 3 1 0 -1 -3 -3 -3 -4 -4 -4 -4 -4 -4 -4 -3 -2 -2
25 25 23 22 21 21 21 18 16 15 13 14 13 14 10 11 11 11 9 9 8 7 7 7 7 7 5 5 2 0 -2 -2 -3 -3 -4 -4 -4 -4 -4 -5 -5 -7 -8
25 25 23 22 22 20 20 19 18 16 16 16 16 14 22 13 12 12 12 10 9 10 17 13 20 20 18 18 9 4 0 -0 -2 -2 -3 -4 -5 -5 -6 -4 -6 -7 -8
24 24 22 22 20 19 19 19 18 18 16 15 14 16 26 15 14 14 20 20 24 23 23 22 21 20 19 12 7 5 4 4 5 -1 -1 -2 -4 -5 -5 -4 -5 -4 -4
18 20 19 14 17 16 16 16 18 18 17 16 13 13 13 13 15 21 25 26 25 23 19 19 17 12 10 7 8 8 8 6 7 5 1 1 0 0 -0 0 2 4 5
23 23 16 13 15 14 16 17 17 15 15 16 17 16 17 17 19 23 25 23 18 15 13 11 9 6 5 5 8 10 10 9 9 9 9 10 9 10 9 8 9 8 9
25 24 21 17 11 12 14 14 17 17 15 15 12 11 13 14 17 17 15 14 15 12 11 11 10 8 5 5 4 4 7 9 9 10 9 9 9 9 9 8 7 6 7
18 19 19 17 13 12 15 17 19 19 14 12 13 14 14 13 12 12 12 12 11 11 10 10 10 10 10 10 10 11 12 14 10 12 9 10 9 8 8 7 7 6 5

GFSGL_sfc_dewp_291.txt.gz
Dewpoint
30 29 29 30 30 29 29 28 29 30 29 29 29 30 30 30 31 31 31 32 32 32 33 33 34 36 35 35 38 36 37 37 35 35 36 34 34 34 34 35 37 40 41
29 29 29 29 29 28 27 27 30 30 30 29 30 30 30 31 31 31 31 32 32 32 32 33 33 34 34 35 35 35 34 34 34 35 36 33 34 33 33 34 33 33 37
28 28 28 27 26 21 21 24 29 30 30 30 30 30 30 30 31 31 31 32 32 33 33 33 32 34 33 34 35 34 34 33 34 36 36 34 33 33 33 34 33 33 33
28 27 25 24 24 20 20 25 24 28 30 31 30 30 30 31 31 32 32 32 32 33 33 33 33 34 34 34 33 33 34 33 33 34 36 35 33 33 33 33 32 31 32
24 20 18 18 18 16 15 26 28 23 31 31 29 29 30 31 32 33 33 33 34 33 32 32 33 33 34 35 34 33 34 34 34 35 35 33 31 31 32 32 31 30 30
18 17 13 12 13 12 12 22 30 29 30 30 28 28 28 30 33 32 31 31 32 32 32 33 33 32 33 36 36 37 36 34 33 35 35 35 34 32 32 31 30 32 30
14 15 12 9 9 9 9 14 23 26 28 29 28 27 28 29 33 31 31 29 29 30 31 32 32 33 33 33 35 35 36 37 38 36 34 35 34 32 32 30 31 25 25
12 14 11 9 8 8 8 11 14 18 20 22 22 22 27 28 32 32 31 26 26 29 31 32 31 32 33 33 32 32 33 33 34 36 36 36 34 34 33 32 29 24 24
14 16 12 10 8 8 10 10 12 14 17 15 18 17 20 24 30 31 28 26 26 26 29 31 32 32 34 35 33 32 31 31 35 36 36 37 36 35 30 29 27 26 22
18 18 15 9 9 10 10 12 12 12 19 21 21 15 17 18 26 30 27 25 23 25 25 28 30 31 33 31 29 28 25 25 25 24 24 25 26 30 32 30 30 28 22
19 17 14 11 13 13 15 16 18 16 17 13 17 16 15 17 18 25 28 24 22 22 23 24 29 29 29 30 28 26 25 24 23 21 20 20 19 19 19 20 22 26 24
20 20 18 15 18 20 20 21 21 20 20 17 16 16 19 18 23 22 24 25 24 22 24 24 26 27 28 27 27 27 26 23 21 20 18 17 16 14 14 15 16 15 17
21 21 18 18 20 21 21 22 22 22 20 20 20 17 18 20 20 23 20 20 20 19 20 23 24 23 23 23 25 24 20 19 18 16 14 13 14 15 16 16 15 15 12
21 20 19 18 19 20 23 23 21 18 18 19 19 17 15 17 19 20 19 17 18 14 13 14 18 18 20 17 14 15 14 14 13 13 12 13 14 13 11 11 9 9 8
22 21 21 19 18 20 21 21 22 21 21 16 15 17 13 13 19 22 21 18 13 16 3 4 6 6 8 8 9 8 9 10 10 7 8 6 7 8 7 6 6 4 1
23 22 22 20 18 20 21 18 27 27 27 27 26 22 20 25 25 24 24 22 20 16 4 -2 1 2 3 0 0 2 3 4 3 3 1 2 3 4 4 4 5 2 0
24 24 23 20 19 19 20 21 20 20 27 27 27 27 26 25 25 24 24 24 20 14 0 -2 -1 0 -1 -3 -5 -4 -2 -3 -5 -1 -2 -1 -1 -1 0 1 3 1 -4
25 25 24 22 20 19 20 21 20 18 18 16 23 25 27 26 25 24 24 20 8 9 0 -2 -1 -3 -2 -3 -5 -6 -5 -5 -4 -4 -4 -7 -7 -6 -5 -5 -4 -6 -7
24 25 24 23 21 20 20 21 20 18 17 12 8 19 18 26 26 26 24 7 5 4 1 1 -2 -3 -2 -4 -4 -6 -6 -4 -6 -7 -8 -8 -8 -7 -8 -8 -5 -5 -7
23 24 25 24 22 21 20 19 19 18 14 15 12 13 5 9 9 10 6 5 4 4 4 5 1 -1 -2 -3 -3 -4 -5 -6 -6 -7 -8 -8 -9 -7 -6 -6 -9 -8 -10
23 24 25 24 22 21 20 19 18 17 15 14 15 12 19 15 13 10 8 5 6 4 13 18 20 20 17 17 11 1 -3 -2 -6 -6 -5 -6 -5 -2 -7 -4 -6 -11 -7
16 18 21 22 20 19 19 18 17 17 17 16 14 12 24 18 14 14 16 18 22 22 23 22 21 19 18 18 10 7 5 2 -1 -2 -3 -4 -7 -8 -6 -5 -9 -10 -10
19 18 16 11 11 12 10 10 14 16 13 13 12 13 11 13 18 18 21 25 24 17 13 16 16 6 5 2 4 6 8 7 6 5 5 3 1 2 1 -0 0 1 2
23 23 21 19 18 15 12 10 9 12 13 13 11 11 10 11 14 15 17 23 17 13 11 10 10 7 4 2 6 4 2 2 7 6 5 4 5 6 5 4 6 6 6
24 23 21 20 20 19 17 12 7 8 9 13 10 8 9 10 16 16 15 15 12 9 9 9 9 8 8 4 2 4 6 8 5 7 4 5 6 8 8 7 7 7 7
13 14 15 16 16 17 17 17 16 15 14 13 12 11 11 11 11 11 11 11 10 10 9 8 8 8 8 7 8 11 12 14 8 8 2 2 2 2 4 6 6 4 5